Rbgn^[z[y[W
メイン
   新天体発見情報
     Comet C/2019 O2 (PANSTARRS)
投稿するにはまず登録を

スレッド表示 | 古いものから 前のトピック | 次のトピック | 下へ
投稿者 スレッド
佐藤裕久
投稿日時: 2024-3-25 21:23
モデレータ
登録日: 2005-6-12
居住地: 日本
投稿: 2674
オンライン
Comet C/2019 O2 (PANSTARRS)

2019年7月24日、HaleakalaにあるPan-STARRS1 1.8-m Ritchey-Chretien反射望遠鏡で得た画像から
見かけ上の小惑星状天体が発見され、MPEC 2019-P54でA/2019 O2と符号がつけられていた。
この画像は、他の観測者が報告しているように、彗星の活動を示していることがわかった。
R. Weryk (西オンタリオ大学,物理および天文学科)は、Pan-STARRS露出からこの彗星を探し、
2014年12月8日(21.7-22.3等)と20日(22.5-22.9等)、そして2016年9月19日(21.7-22.3等)と
11月7日(20.9-22.4等)のPan-STARRS1発見前の恒星状画像を見つけた。
Werykは、同定した発見後の観測では、彗星はすべて恒星状に見えるとのこと。
K. Wierzchos (アリゾナ大学月惑星研究所; LPL)によると、2023年6月30.3日UT、Mt Lemmonにある
1.5-m 反射望遠鏡で得た4枚のフィルターなし30-秒露出では、p.a. 190-270°にわたって、6"の、
短く広い尾と非常に集光した3”のコマが見え、光度は19.8-19.9等であった。

彗星機能の報告は次のとおり、

OC   Date        Reporter           Coma    Tail    PA          Exposures
G96  2023-06-30  K. Wierzchos       3"        6"    190-270       4x30s

発見位置は次のとおり、

     2019 UT             R.A. (2000) Decl.       Mag.
     July 24.52254   20 20 35.84   +75 40 48.0   20.5
          24.53640   20 20 34.31   +75 40 47.9   20.7
          24.55022   20 20 32.86   +75 40 47.7   20.8
          24.56407   20 20 31.40   +75 40 47.3   20.6

MPCの楕円軌道要素、位置推算表は次のとおり、

Orbital elements:
    C/2019 O2 (PANSTARRS)                                                       
Epoch 2024 Mar. 31.0 TT = JDT 2460400.5                                         
T 2023 Apr. 6.62238 TT                                  Rudenko                 
q   9.6824097            (2000.0)            P               Q                  
z  +0.0171410      Peri.  129.60960     -0.39125757     -0.54040854             
 +/-0.0000000      Node    48.25768     -0.76958246     -0.25171969             
e   0.8340334      Incl.   93.31235     +0.50463883     -0.80286724             
From 395 observations 2011 Nov. 28-2023 Sept. 12, mean residual 0".3.           
                                                                                
Ephemeris:
Date    TT    R. A. (2000) Decl.     Delta      r    Elong.  Phase   m1
2024 02 01    16 13 44.8 +15 50 34   9.9777  9.8001    76.8     5.6  19.9
...
2024 02 16    16 14 34.9 +16 03 19   9.7821  9.8121    88.8     5.8  19.9
...
2024 02 24    16 14 22.8 +16 12 51   9.6762  9.8187    95.4     5.8  19.8
...
2024 03 01    16 13 55.0 +16 20 51   9.5978  9.8237   100.3     5.7  19.8
2024 03 02    16 13 48.8 +16 22 14   9.5849  9.8246   101.1     5.7  19.8
2024 03 03    16 13 42.1 +16 23 38   9.5720  9.8254   102.0     5.7  19.8
...
2024 03 09    16 12 52.3 +16 32 12   9.4964  9.8306   106.9     5.5  19.8
...
2024 03 17    16 11 20.0 +16 43 45   9.4007  9.8376   113.4     5.3  19.8
...
2024 04 01    16 07 10.3 +17 03 28   9.2447  9.8512   125.0     4.8  19.8

(MPEC 2024-E07、CBET 5362)

スレッド表示 | 古いものから 前のトピック | 次のトピック | トップ

投稿するにはまず登録を
 
© 1999 Tsutomu Seki.